Location: Hamayl? Da??
(36.7028°N, 30.1716°E)
Time: 05:47:28
(UTC+00:00)

NPP - Pass Details

Date: 04 August 2024
Orbit: 825 x 828 km, 98.7° (Epoch: 10 September)

Event Time Altitude Azimuth Distance (km) Brightness Sun altitude
Rises 23:33:43 0° 15° (NNE) 3,371 7.9 -32.5°
Reaches altitude 10° 23:36:05 10° 17° (NNE) 2,433 6.9 -32.3°
Enters shadow 23:40:20 55° 36° (NE) 984 4.2 -31.9°
